Location: Observatoire de l'Aigle
(47.0607°N, 71.3152°W)
Time: 02:48:31
(UTC-04:00)

Amateur Radio Satellites - All Passes

Search period start: 26 May 2016 02:18
Search period end: 27 May 2016 02:18
Location: Observatoire de l'Aigle, 47.0607°N, 71.3152°W

Satellite Date Start Highest point End Downlink Frequencies (MHz)
Time Altitude Azimuth
STARS 26 May 02:20:24 02:21:06 10° 55° (NE) 02:21:49 437.465
Cosmos 2504 26 May 02:29:48 02:32:32 12° 49° (NE) 02:35:17 435.465 / 435.565
SO-50 26 May 02:38:18 02:42:49 35° 319° (NW) 02:47:18 436.795
AO-7 26 May 02:50:56 02:55:20 15° 85° (E) 02:59:44 29.400- 29.500
SWISSCUBE 26 May 02:51:51 02:56:07 33° 264° (W) 03:00:25 437.505
ITUPSAT 1 26 May 02:56:54 03:01:11 33° 264° (W) 03:05:30 437.325
Cosmos 2491 26 May 03:05:28 03:12:17 26° 79° (E) 03:19:05 435.465 / 435.565
KKS-1 26 May 03:11:19 03:15:41 55° 71° (ENE) 03:20:04 437.445
Oscar 19 26 May 03:11:28 03:16:19 41° 293° (WNW) 03:21:07 437.125/150
MOZHAYETS 4 26 May 03:12:35 03:16:50 41° 69° (ENE) 03:21:08
ISS 26 May 03:14:15 03:17:30 62° 20° (NNE) 03:20:44 145.825
PHONESAT 2.4 26 May 03:17:05 03:18:54 14° 199° (SSW) 03:20:42 2401.200-2431.200
Gurwin Techsat 1B 26 May 03:18:03 03:23:24 80° 287° (WNW) 03:28:43 435.225
JAS-2 26 May 03:19:11 03:25:45 32° 302° (WNW) 03:31:50 435.910
BEESAT 26 May 03:22:56 03:26:21 19° 268° (W) 03:29:46 436.000
ITAMSAT 1 26 May 03:48:20 03:53:35 80° 104° (ESE) 03:58:49 435.822/435.867
STARS 26 May 03:52:17 03:56:41 75° 73° (ENE) 04:01:06 437.465
RS-15 26 May 03:55:32 04:07:01 49° 249° (WSW) 04:18:28 29.354- 29.394
YUBILEINY 26 May 04:02:14 04:10:58 77° 265° (W) 04:19:43 435.215
Cosmos 2504 26 May 04:20:12 04:28:14 50° 73° (ENE) 04:36:39 435.465 / 435.565
SO-50 26 May 04:22:36 04:24:43 13° 341° (NNW) 04:26:51 436.795
HORYU 2 26 May 04:27:21 04:29:45 14° 90° (E) 04:32:09 437.375
CUBESAT XI-V 26 May 04:32:44 04:36:55 34° 67° (ENE) 04:41:10 437.345
AO-7 26 May 04:41:16 04:49:39 70° 106° (ESE) 04:57:59 29.400- 29.500
KKS-1 26 May 04:49:35 04:52:35 18° 269° (W) 04:55:36 437.445
MOZHAYETS 4 26 May 04:50:29 04:54:09 24° 267° (W) 04:57:53
ISS 26 May 04:50:57 04:53:47 27° 218° (SW) 04:56:35 145.825
Cosmos 2491 26 May 04:59:20 05:08:11 78° 281° (W) 05:17:04 435.465 / 435.565
Gurwin Techsat 1B 26 May 04:59:50 05:02:31 14° 306° (NW) 05:05:13 435.225
STRAND 1 26 May 05:09:48 05:10:36 10° 52° (NE) 05:11:24 437.568
ITAMSAT 1 26 May 05:29:06 05:32:26 17° 303° (WNW) 05:35:47 435.822/435.867
STARS 26 May 05:31:42 05:33:35 12° 271° (W) 05:35:28 437.465
BRITE-PL 26 May 05:36:15 05:38:21 12° 83° (E) 05:40:25 437.365/2234.400
NOAA 18 26 May 05:47:02 05:50:30 17° 90° (E) 05:53:56 137.9125
YUBILEINY 26 May 06:01:08 06:06:14 17° 286° (WNW) 06:11:22 435.215
HORYU 2 26 May 06:02:22 06:06:46 66° 288° (WNW) 06:11:09 437.375
Cubesat XI-IV 26 May 06:03:22 06:07:11 19° 91° (E) 06:10:59 437.490
NOAA 15 26 May 06:04:47 06:09:19 28° 94° (E) 06:13:49 137.62
CUBESAT XI-V 26 May 06:10:13 06:14:19 30° 265° (W) 06:18:29 437.345
GOMX 1 26 May 06:10:55 06:12:16 11° 84° (E) 06:13:36 467.674
Cosmos 2504 26 May 06:13:51 06:21:31 43° 273° (W) 06:29:34 435.465 / 435.565
AO-85 26 May 06:22:57 06:28:03 41° 118° (ESE) 06:33:03 145.980
LilacSat-2 26 May 06:32:01 06:35:18 28° 95° (E) 06:38:35 437.200
AO-7 26 May 06:34:40 06:41:52 34° 307° (NW) 06:49:05 29.400- 29.500
STRAND 1 26 May 06:43:45 06:48:45 61° 71° (ENE) 06:53:48 437.568
CUTE-I 26 May 06:49:22 06:54:32 47° 99° (E) 06:59:41 437.470
Cosmos 2491 26 May 07:00:35 07:06:41 20° 305° (NW) 07:12:49 435.465 / 435.565
PRISM 26 May 07:00:44 07:03:26 17° 61° (ENE) 07:06:09 437.425
DOVE 4 26 May 07:07:19 07:10:26 18° 90° (E) 07:13:26 437.250
Cosmos 2499 26 May 07:10:22 07:12:14 11° 46° (NE) 07:14:07 435.465 / 435.565
BRITE-PL 26 May 07:12:25 07:17:45 89° 105° (ESE) 07:22:37 437.365/2234.400
NOAA 18 26 May 07:26:17 07:31:46 77° 288° (WNW) 07:37:14 137.9125
AIST 1 26 May 07:34:53 07:38:18 22° 69° (ENE) 07:41:40
Cubesat XI-IV 26 May 07:42:25 07:47:44 65° 289° (WNW) 07:53:02 437.490
NOAA 15 26 May 07:44:14 07:49:17 45° 292° (WNW) 07:54:17 137.62
SO-50 26 May 07:46:14 07:49:48 20° 31° (NNE) 07:53:19 436.795
GOMX 1 26 May 07:46:20 07:51:12 88° 284° (WNW) 07:55:42 467.674
CINEMA 3 26 May 07:51:05 07:53:35 15° 90° (E) 07:56:04 145.822/145.860
GONETS M04 26 May 07:55:44 08:03:17 31° 64° (ENE) 08:10:46
HO-68 26 May 07:55:52 08:01:45 27° 92° (E) 08:07:36 435.675
AO-85 26 May 08:03:28 08:08:37 41° 316° (NW) 08:13:36 145.980
LilacSat-2 26 May 08:06:26 08:09:33 25° 293° (WNW) 08:12:39 437.200
CANX-2 26 May 08:17:46 08:21:38 32° 96° (E) 08:25:28 2200.000
SEEDS 26 May 08:24:11 08:27:42 25° 94° (E) 08:31:12 437.485
STRAND 1 26 May 08:24:43 08:28:21 19° 269° (W) 08:32:01 437.568
CUTE-I 26 May 08:29:51 08:34:22 28° 298° (WNW) 08:38:52 437.470
AO-7 26 May 08:30:51 08:32:07 10° 331° (NNW) 08:33:22 29.400- 29.500
PRISM 26 May 08:34:17 08:38:21 55° 259° (W) 08:42:28 437.425
DOVE 4 26 May 08:44:10 08:48:30 48° 290° (WNW) 08:52:36 437.250
CUTE 1.7 + AOD 2 26 May 08:45:08 08:49:20 54° 100° (E) 08:53:33 437.475
Oscar 11 26 May 08:45:19 08:45:38 10° 86° (E) 08:45:57 145.826/435.025
CUBEBUG 2 26 May 08:51:33 08:54:46 21° 93° (E) 08:58:00 437.445
BRITE-PL 26 May 08:52:25 08:55:22 15° 304° (NW) 08:58:12 437.365/2234.400
ZACube-1 26 May 08:55:10 08:56:27 11° 88° (E) 08:57:43 437.345
Cosmos 2499 26 May 08:59:52 09:07:56 45° 71° (ENE) 09:16:19 435.465 / 435.565
AUBIESAT-1 26 May 09:03:37 09:06:58 70° 108° (ESE) 09:10:15 437.475
UNISAT 6 26 May 09:04:42 09:07:49 19° 63° (ENE) 09:10:54 437.425
NOAA 18 26 May 09:08:45 09:11:34 14° 307° (NW) 09:14:24 137.9125
M-CUBED/EXP-1 PRIME 26 May 09:08:51 09:12:11 79° 290° (WNW) 09:15:26 437.505
AIST 1 26 May 09:11:59 09:16:04 39° 268° (W) 09:20:06
TIGRISAT 26 May 09:12:35 09:15:54 22° 64° (ENE) 09:19:12 435.000
COMPASS 1 26 May 09:13:02 09:17:13 57° 100° (E) 09:21:22 437.405
AAUSAT CUBESAT 2 26 May 09:17:17 09:21:24 51° 100° (E) 09:25:30 437.432
UWE-3 26 May 09:23:20 09:27:05 32° 96° (E) 09:30:52 435.000/436.395/437.385
Cubesat XI-IV 26 May 09:24:56 09:26:49 12° 308° (NW) 09:28:41 437.490
SO-50 26 May 09:26:13 09:31:00 88° 56° (NE) 09:35:35 436.795
GOMX 1 26 May 09:26:19 09:28:27 13° 305° (NW) 09:30:32 467.674
CINEMA 3 26 May 09:27:01 09:31:08 53° 288° (WNW) 09:35:09 145.822/145.860
FUNcube-1 26 May 09:32:21 09:35:52 26° 95° (E) 09:39:25 145.935
HO-68 26 May 09:42:54 09:50:02 69° 292° (WNW) 09:57:09 435.675
ANTELSAT 26 May 09:44:43 09:48:52 45° 71° (ENE) 09:52:59 437.575/2403.000
AO-85 26 May 09:47:31 09:50:28 15° 338° (NNW) 09:53:19 145.980
O/OREOS (USA 219) 26 May 09:50:50 09:55:14 48° 109° (ESE) 09:59:37 437.305
GONETS M04 26 May 09:52:14 10:00:51 68° 267° (W) 10:09:25
CANX-2 26 May 09:53:46 09:57:23 27° 294° (WNW) 10:01:02 2200.000
SEEDS 26 May 09:59:37 10:03:29 35° 291° (WNW) 10:07:21 437.485
DELFI C3 26 May 10:01:18 10:04:54 30° 96° (E) 10:08:28 145.870
JAS-2 26 May 10:08:47 10:11:24 12° 41° (NE) 10:14:01 435.910
DUCHIFAT 1 26 May 10:09:14 10:11:52 16° 61° (ENE) 10:14:30 145.980
Oscar 11 26 May 10:18:01 10:22:24 88° 284° (WNW) 10:26:45 145.826/435.025
PCSat 26 May 10:21:45 10:27:06 64° 118° (ESE) 10:32:29 145.827
CUTE 1.7 + AOD 2 26 May 10:21:57 10:24:48 18° 298° (WNW) 10:27:40 437.475
CUBEBUG 2 26 May 10:27:42 10:31:33 37° 291° (WNW) 10:35:24 437.445
ZACube-1 26 May 10:29:05 10:33:15 76° 285° (WNW) 10:37:28 437.345
BUGSAT 1 26 May 10:34:26 10:36:50 15° 61° (ENE) 10:39:13 437.445
UNISAT 6 26 May 10:39:59 10:44:14 49° 260° (W) 10:48:26 437.425
POPSAT HIP 1 26 May 10:43:58 10:47:52 37° 69° (ENE) 10:51:47 437.405
QB50P1 26 May 10:44:30 10:48:26 38° 69° (ENE) 10:52:22 145.935-145.965
QB50P2 26 May 10:46:09 10:50:09 41° 70° (ENE) 10:54:09 145.880/145.840
TIGRISAT 26 May 10:48:13 10:52:22 43° 261° (W) 10:56:30 435.000
POLYITAN 1 26 May 10:48:35 10:52:35 42° 70° (ENE) 10:56:36 437.675
COMPASS 1 26 May 10:49:42 10:52:22 17° 298° (WNW) 10:55:01 437.405
HUMSAT D 26 May 10:51:19 10:55:21 48° 99° (E) 10:59:24 437.325/437.525
Cosmos 2499 26 May 10:53:06 11:01:08 48° 271° (W) 11:09:28 435.465 / 435.565
AAUSAT CUBESAT 2 26 May 10:53:41 10:56:32 18° 297° (WNW) 10:59:23 437.432
UWE-3 26 May 11:00:01 11:03:29 26° 294° (WNW) 11:06:57 435.000/436.395/437.385
NANOSAT C BR1 26 May 11:03:36 11:07:44 57° 73° (ENE) 11:11:54 145.865
FUNcube-1 26 May 11:08:28 11:12:10 32° 292° (WNW) 11:15:54 145.935
SO-50 26 May 11:08:31 11:10:44 13° 252° (WSW) 11:12:55 436.795
CUSAT 1 26 May 11:11:51 11:17:27 32° 84° (E) 11:23:58 437.405
AISAT 26 May 11:12:21 11:14:03 12° 88° (E) 11:15:45 437.250
ANTELSAT 26 May 11:22:39 11:25:49 19° 268° (W) 11:28:59 437.575/2403.000
UKube-1 26 May 11:29:12 11:30:33 11° 88° (E) 11:31:54 .
O/OREOS (USA 219) 26 May 11:31:12 11:34:53 23° 308° (NW) 11:38:34 437.305
HO-68 26 May 11:32:13 11:36:32 17° 313° (NW) 11:40:51 435.675
AO-85 26 May 11:32:35 11:33:11 10° 3° (N) 11:33:48 145.980
DELFI C3 26 May 11:36:18 11:39:41 26° 293° (WNW) 11:43:03 145.870
ESTCUBE 1 26 May 11:42:15 11:46:25 34° 96° (E) 11:50:32 437.505/2401.250
DUCHIFAT 1 26 May 11:42:59 11:47:09 58° 259° (W) 11:51:19 145.980
BEESAT 2 26 May 11:45:19 11:48:10 19° 113° (ESE) 11:51:03 435.950
JAS-2 26 May 11:47:28 11:54:24 44° 63° (ENE) 12:01:42 435.910
GONETS M04 26 May 11:51:48 11:55:53 14° 289° (WNW) 11:59:59
Oscar 11 26 May 11:56:22 11:57:50 12° 302° (WNW) 11:59:20 145.826/435.025
PCSat 26 May 12:06:17 12:10:56 28° 319° (NW) 12:15:36 145.827
BUGSAT 1 26 May 12:07:33 12:11:45 65° 258° (WSW) 12:15:55 437.445
CUBEBUG 1 26 May 12:08:00 12:12:12 42° 98° (E) 12:16:21 437.445
VELOX 1 26 May 12:10:50 12:15:05 43° 99° (E) 12:19:18 145.980
DX 1 26 May 12:10:53 12:14:57 36° 98° (E) 12:18:58 434.975-435.025
POPSAT HIP 1 26 May 12:20:22 12:23:46 23° 266° (W) 12:27:11 437.405
QB50P1 26 May 12:20:59 12:24:20 22° 267° (W) 12:27:42 145.935-145.965
BEESAT 3 26 May 12:21:48 12:25:44 73° 125° (SE) 12:29:42 437.485
QB50P2 26 May 12:22:56 12:26:08 21° 267° (W) 12:29:21 145.880/145.840
POLYITAN 1 26 May 12:25:26 12:28:35 20° 267° (W) 12:31:45 437.675
HUMSAT D 26 May 12:27:48 12:30:40 18° 297° (WNW) 12:33:33 437.325/437.525
DANDE 26 May 12:33:23 12:38:46 59° 93° (E) 12:45:50 436.750
50 SAT 26 May 12:37:17 12:41:00 78° 285° (WNW) 12:44:44 437.505
NANOSAT C BR1 26 May 12:41:23 12:43:50 15° 270° (W) 12:46:20 145.865
SPROUT 26 May 12:42:02 12:46:03 39° 98° (E) 12:50:01 437.525
AISAT 26 May 12:46:39 12:51:06 78° 287° (WNW) 12:55:30 437.250
Oscar 19 26 May 12:51:55 12:57:00 57° 70° (ENE) 13:02:06 437.125/150
CUSAT 1 26 May 12:52:43 12:59:03 58° 288° (WNW) 13:06:44 437.405
UKube-1 26 May 13:02:50 13:07:11 80° 284° (WNW) 13:11:29 .
Gurwin Techsat 1B 26 May 13:03:09 13:07:52 34° 65° (ENE) 13:12:37 435.225
Cosmos 2491 26 May 13:10:51 13:15:47 16° 51° (NE) 13:20:42 435.465 / 435.565
TISAT 1 26 May 13:12:09 13:15:32 23° 94° (E) 13:18:53 437.305
AO-85 26 May 13:12:17 13:15:44 19° 28° (NNE) 13:19:00 145.980
ESTCUBE 1 26 May 13:19:12 13:23:09 29° 294° (WNW) 13:27:03 437.505/2401.250
BEESAT 2 26 May 13:21:49 13:25:42 50° 312° (NW) 13:29:37 435.950
ITAMSAT 1 26 May 13:31:19 13:35:30 26° 61° (ENE) 13:39:42 435.822/435.867
JAS-2 26 May 13:32:13 13:39:16 49° 264° (W) 13:46:51 435.910
AIST 2 26 May 13:42:12 13:45:23 22° 114° (ESE) 13:48:35 435.215
BEESAT 26 May 13:43:11 13:44:22 11° 87° (E) 13:45:34 436.000
CUBEBUG 1 26 May 13:44:50 13:48:15 23° 296° (WNW) 13:51:39 437.445
DX 1 26 May 13:47:24 13:50:59 25° 296° (WNW) 13:54:34 434.975-435.025
VELOX 1 26 May 13:47:51 13:51:19 23° 297° (WNW) 13:54:44 145.980
AO-7 26 May 13:52:33 13:59:35 32° 52° (NE) 14:06:40 29.400- 29.500
PCSat 26 May 13:55:11 13:56:17 11° 344° (NNW) 13:57:23 145.827
BEESAT 3 26 May 14:01:02 14:03:53 19° 325° (NW) 14:06:44 437.485
DANDE 26 May 14:17:16 14:22:18 28° 300° (WNW) 14:28:28 436.750
SPROUT 26 May 14:18:26 14:21:48 23° 296° (WNW) 14:25:09 437.525
AISAT 26 May 14:25:46 14:26:48 11° 304° (NW) 14:27:50 437.250
Oscar 19 26 May 14:32:45 14:36:41 21° 268° (W) 14:40:37 437.125/150
CUSAT 1 26 May 14:39:25 14:43:12 15° 312° (NW) 14:47:16 437.405
UKube-1 26 May 14:41:30 14:42:28 11° 304° (NW) 14:43:27 .
Gurwin Techsat 1B 26 May 14:42:49 14:47:45 38° 263° (W) 14:52:43 435.225
TISAT 1 26 May 14:47:28 14:51:17 35° 292° (WNW) 14:55:04 437.305
SWISSCUBE 26 May 14:48:13 14:52:54 50° 100° (E) 14:57:34 437.505
AO-85 26 May 14:52:17 14:57:08 74° 52° (NE) 15:01:29 145.980
ITUPSAT 1 26 May 14:53:36 14:58:17 50° 100° (E) 15:02:57 437.325
BEESAT 2 26 May 15:02:54 15:04:29 12° 333° (NNW) 15:06:03 435.950
Cosmos 2491 26 May 15:06:03 15:14:47 63° 76° (ENE) 15:23:24 435.465 / 435.565
ITAMSAT 1 26 May 15:09:41 15:14:41 50° 260° (W) 15:19:45 435.822/435.867
YUBILEINY 26 May 15:12:19 15:19:07 27° 79° (E) 15:25:55 435.215
BEESAT 26 May 15:18:04 15:22:53 86° 104° (ESE) 15:27:41 436.000
AIST 2 26 May 15:19:36 15:23:36 48° 313° (NW) 15:27:38 435.215
HORYU 2 26 May 15:28:01 15:31:17 21° 62° (ENE) 15:34:33 437.375
STARS 26 May 15:41:18 15:42:16 11° 87° (E) 15:43:14 437.465
AO-7 26 May 15:43:29 15:51:46 73° 254° (WSW) 16:00:07 29.400- 29.500
NOAA 15 26 May 15:52:50 15:54:03 11° 51° (NE) 15:55:17 137.62
RS-15 26 May 16:13:02 16:21:29 25° 100° (E) 16:30:13 29.354- 29.394
SWISSCUBE 26 May 16:26:40 16:30:24 23° 298° (WNW) 16:34:08 437.505
ITUPSAT 1 26 May 16:32:04 16:35:49 23° 298° (WNW) 16:39:34 437.325
AO-85 26 May 16:34:14 16:36:52 15° 252° (WSW) 16:39:24 145.980
KKS-1 26 May 16:35:31 16:39:58 72° 103° (ESE) 16:44:23 437.445
CUTE-I 26 May 16:36:48 16:40:12 17° 57° (ENE) 16:43:36 437.470
MOZHAYETS 4 26 May 16:41:06 16:45:43 64° 101° (ESE) 16:50:18
BRITE-PL 26 May 16:48:09 16:52:33 24° 61° (ENE) 16:56:58 437.365/2234.400
BEESAT 26 May 16:57:27 17:00:01 15° 303° (WNW) 17:02:35 436.000
AIST 2 26 May 17:01:25 17:03:05 12° 334° (NNW) 17:04:46 435.215
HORYU 2 26 May 17:03:15 17:07:32 48° 260° (W) 17:11:50 437.375
Cosmos 2504 26 May 17:03:36 17:09:54 33° 84° (E) 17:16:29 435.465 / 435.565
Cosmos 2491 26 May 17:03:37 17:11:03 32° 278° (W) 17:18:26 435.465 / 435.565
YUBILEINY 26 May 17:06:21 17:15:02 75° 281° (W) 17:23:47 435.215
STARS 26 May 17:14:51 17:19:16 85° 283° (WNW) 17:23:37 437.465
NOAA 18 26 May 17:15:43 17:20:50 43° 66° (ENE) 17:25:58 137.9125
LilacSat-2 26 May 17:17:13 17:20:12 22° 66° (ENE) 17:23:12 437.200
GOMX 1 26 May 17:19:51 17:23:59 22° 62° (ENE) 17:28:01 467.674
PCSat 26 May 17:23:47 17:28:03 23° 37° (NE) 17:32:18 145.827
NOAA 15 26 May 17:27:34 17:32:46 59° 70° (ENE) 17:38:01 137.62
Cubesat XI-IV 26 May 17:27:59 17:32:58 42° 67° (ENE) 17:37:58 437.490
AO-7 26 May 17:41:24 17:46:00 16° 274° (W) 17:50:39 29.400- 29.500
CUBESAT XI-V 26 May 18:02:54 18:07:33 54° 100° (E) 18:12:09 437.345
KKS-1 26 May 18:13:29 18:16:00 15° 301° (WNW) 18:18:29 437.445
CUTE-I 26 May 18:14:17 18:19:36 82° 255° (WSW) 18:24:58 437.470
DOVE 4 26 May 18:14:32 18:19:04 31° 67° (ENE) 18:23:28 437.250
O/OREOS (USA 219) 26 May 18:19:00 18:22:31 22° 51° (NE) 18:26:01 437.305
AUBIESAT-1 26 May 18:19:18 18:21:58 17° 59° (ENE) 18:24:32 437.475
MOZHAYETS 4 26 May 18:19:23 18:22:24 18° 300° (WNW) 18:25:26
RS-15 26 May 18:20:40 18:32:04 85° 125° (SE) 18:44:12 29.354- 29.394
M-CUBED/EXP-1 PRIME 26 May 18:24:13 18:27:29 23° 61° (ENE) 18:30:34 437.505
BRITE-PL 26 May 18:24:55 18:30:32 65° 259° (W) 18:36:13 437.365/2234.400
HO-68 26 May 18:28:08 18:34:04 29° 56° (NE) 18:40:00 435.675
LilacSat-2 26 May 18:50:58 18:54:23 31° 264° (W) 18:57:48 437.200
STRAND 1 26 May 18:52:18 18:55:30 16° 89° (E) 18:58:40 437.568
STARS 26 May 18:53:29 18:54:54 11° 304° (WNW) 18:56:19 437.465
CINEMA 3 26 May 18:54:59 18:58:43 24° 65° (ENE) 19:02:20 145.822/145.860
Cosmos 2504 26 May 18:55:54 19:02:55 52° 286° (WNW) 19:10:24 435.465 / 435.565
GOMX 1 26 May 18:56:08 19:01:36 65° 259° (W) 19:06:58 467.674
NOAA 18 26 May 18:56:50 19:01:37 31° 264° (W) 19:06:27 137.9125
BEESAT 3 26 May 18:59:24 19:02:18 19° 36° (NE) 19:05:11 437.485
PCSat 26 May 19:06:40 19:12:09 85° 237° (WSW) 19:17:34 145.827
YUBILEINY 26 May 19:07:51 19:13:35 19° 305° (NW) 19:19:22 435.215
Cubesat XI-IV 26 May 19:08:33 19:13:10 30° 265° (W) 19:17:49 437.490
NOAA 15 26 May 19:08:58 19:12:57 21° 269° (W) 19:16:57 137.62
CANX-2 26 May 19:13:23 19:17:10 33° 68° (ENE) 19:20:58 2200.000
SEEDS 26 May 19:18:55 19:22:21 25° 66° (ENE) 19:25:49 437.485
CUTE 1.7 + AOD 2 26 May 19:40:29 19:44:35 55° 72° (ENE) 19:48:44 437.475
CUBESAT XI-V 26 May 19:41:04 19:44:33 21° 298° (WNW) 19:48:01 437.345
Oscar 11 26 May 19:42:12 19:44:10 13° 59° (ENE) 19:46:08 145.826/435.025
DOVE 4 26 May 19:51:46 19:56:40 39° 263° (W) 20:01:24 437.250
AUBIESAT-1 26 May 19:52:12 19:56:13 51° 254° (WSW) 19:59:58 437.475
CUBEBUG 2 26 May 19:52:26 19:56:07 27° 67° (ENE) 19:59:44 437.445
ZACube-1 26 May 19:53:44 19:56:00 14° 61° (ENE) 19:58:15 437.345
O/OREOS (USA 219) 26 May 19:57:52 20:02:14 51° 250° (WSW) 20:06:33 437.305
M-CUBED/EXP-1 PRIME 26 May 19:58:00 20:01:55 37° 256° (WSW) 20:05:34 437.505
CUTE-I 26 May 19:58:36 20:00:29 12° 274° (W) 20:02:23 437.470
BEESAT 2 26 May 19:59:30 20:03:11 34° 44° (NE) 20:06:50 435.950
COMPASS 1 26 May 20:06:28 20:10:31 56° 73° (ENE) 20:14:36 437.405
BRITE-PL 26 May 20:09:32 20:10:02 10° 278° (W) 20:10:32 437.365/2234.400
AIST 1 26 May 20:09:59 20:11:08 11° 81° (E) 20:12:18
AAUSAT CUBESAT 2 26 May 20:10:13 20:14:12 49° 72° (ENE) 20:18:14 437.432
PRISM 26 May 20:13:48 20:16:28 16° 91° (E) 20:19:07 437.425
HO-68 26 May 20:14:09 20:21:16 69° 256° (WSW) 20:28:26 435.675
AIST 2 26 May 20:22:59 20:24:06 11° 23° (NNE) 20:25:14 435.215
UWE-3 26 May 20:23:06 20:27:05 38° 70° (ENE) 20:31:00 435.000/436.395/437.385
STRAND 1 26 May 20:30:04 20:35:14 73° 287° (WNW) 20:40:21 437.568
FUNcube-1 26 May 20:30:47 20:34:27 30° 68° (ENE) 20:38:06 145.935
CINEMA 3 26 May 20:31:07 20:35:39 44° 262° (W) 20:40:01 145.822/145.860
RS-15 26 May 20:35:01 20:45:59 44° 333° (NNW) 20:57:29 29.354- 29.394
BEESAT 3 26 May 20:36:28 20:40:26 70° 235° (SW) 20:44:21 437.485
CANX-2 26 May 20:49:35 20:53:05 25° 266° (W) 20:56:37 2200.000
DELFI C3 26 May 20:50:17 20:53:38 27° 67° (ENE) 20:57:01 145.870
PCSat 26 May 20:52:02 20:54:43 14° 257° (WSW) 20:57:23 145.827
SEEDS 26 May 20:54:09 20:57:56 33° 264° (W) 21:01:46 437.485
Cosmos 2504 26 May 20:56:38 20:58:38 11° 312° (NW) 21:00:39 435.465 / 435.565
GONETS M04 26 May 21:01:35 21:08:56 31° 82° (E) 21:16:14
Oscar 11 26 May 21:15:23 21:19:41 80° 257° (WSW) 21:24:01 145.826/435.025
CUTE 1.7 + AOD 2 26 May 21:18:17 21:20:47 15° 270° (W) 21:23:20 437.475
DANDE 26 May 21:26:29 21:31:59 19° 52° (NE) 21:37:24 436.750
ZACube-1 26 May 21:27:36 21:31:49 67° 258° (WSW) 21:35:59 437.345
CUBEBUG 2 26 May 21:28:44 21:32:41 32° 264° (W) 21:36:33 437.445
ISS 26 May 21:32:45 21:35:00 17° 137° (SE) 21:37:16 145.825
BEESAT 2 26 May 21:37:27 21:40:58 30° 243° (WSW) 21:44:27 435.950
Cosmos 2499 26 May 21:41:44 21:47:46 29° 82° (E) 21:54:09 435.465 / 435.565
CUSAT 1 26 May 21:42:40 21:49:45 33° 63° (ENE) 21:56:00 437.405
AIST 1 26 May 21:43:37 21:48:02 81° 280° (W) 21:52:28
COMPASS 1 26 May 21:44:03 21:46:27 15° 270° (W) 21:48:52 437.405
HUMSAT D 26 May 21:45:23 21:49:19 48° 72° (ENE) 21:53:16 437.325/437.525
AAUSAT CUBESAT 2 26 May 21:47:18 21:49:59 17° 269° (W) 21:52:42 437.432
PRISM 26 May 21:48:01 21:52:06 52° 289° (WNW) 21:56:09 437.425
AIST 2 26 May 21:59:47 22:03:43 40° 45° (NE) 22:07:38 435.215
UWE-3 26 May 22:00:19 22:03:41 22° 267° (W) 22:07:01 435.000/436.395/437.385
FUNcube-1 26 May 22:07:04 22:10:42 28° 265° (W) 22:14:20 145.935
HO-68 26 May 22:07:20 22:10:18 13° 276° (W) 22:13:18 435.675
STRAND 1 26 May 22:11:25 22:13:32 13° 306° (NW) 22:15:38 437.568
AISAT 26 May 22:12:06 22:15:04 18° 60° (ENE) 22:18:01 437.250
DELFI C3 26 May 22:25:00 22:28:27 28° 265° (W) 22:31:56 145.870
UKube-1 26 May 22:26:05 22:28:43 16° 60° (ENE) 22:31:22 .
UNISAT 6 26 May 22:28:41 22:32:16 26° 95° (E) 22:35:54 437.425
TIGRISAT 26 May 22:36:29 22:40:14 29° 96° (E) 22:43:59 435.000
ESTCUBE 1 26 May 22:44:28 22:48:45 44° 70° (ENE) 22:53:04 437.505/2401.250
RS-15 26 May 22:51:52 23:02:29 34° 6° (N) 23:13:22 29.354- 29.394
GONETS M04 26 May 22:56:23 23:05:07 66° 283° (WNW) 23:13:52
PHONESAT 2.4 26 May 23:02:55 23:04:40 14° 160° (SSE) 23:06:26 2401.200-2431.200
CUBEBUG 1 26 May 23:06:30 23:10:48 52° 71° (ENE) 23:15:08 437.445
ISS 26 May 23:07:49 23:11:06 86° 343° (NNW) 23:14:22 145.825
DANDE 26 May 23:08:09 23:16:35 66° 74° (ENE) 23:24:27 436.750
DX 1 26 May 23:08:59 23:13:12 47° 70° (ENE) 23:17:25 434.975-435.025
ANTELSAT 26 May 23:09:30 23:13:47 67° 102° (ESE) 23:18:06 437.575/2403.000
VELOX 1 26 May 23:10:42 23:15:05 57° 71° (ENE) 23:19:29 145.980
50 SAT 26 May 23:18:07 23:21:44 74° 76° (ENE) 23:25:25 437.505
HUMSAT D 26 May 23:22:37 23:25:14 16° 269° (W) 23:27:51 437.325/437.525
CUSAT 1 26 May 23:24:38 23:32:27 62° 266° (W) 23:39:06 437.405
DUCHIFAT 1 26 May 23:24:57 23:27:47 17° 91° (E) 23:30:35 145.980
Cosmos 2499 26 May 23:33:06 23:40:17 61° 284° (WNW) 23:48:04 435.465 / 435.565
SPROUT 26 May 23:38:16 23:42:21 44° 70° (ENE) 23:46:26 437.525
AIST 2 26 May 23:38:33 23:42:04 27° 244° (WSW) 23:45:33 435.215
SO-50 26 May 23:45:06 23:47:46 15° 109° (ESE) 23:50:27 436.795
AISAT 26 May 23:46:40 23:51:06 61° 259° (W) 23:55:33 437.250
BUGSAT 1 26 May 23:47:47 23:49:59 14° 90° (E) 23:52:09 437.445
UKube-1 27 May 00:00:00 00:04:18 65° 258° (WSW) 00:08:38 .
POPSAT HIP 1 27 May 00:01:05 00:05:07 44° 99° (E) 00:09:08 437.405
QB50P1 27 May 00:01:35 00:05:38 45° 99° (E) 00:09:40 145.935-145.965
QB50P2 27 May 00:03:29 00:07:37 50° 100° (E) 00:11:42 145.880/145.840
UNISAT 6 27 May 00:05:11 00:09:03 34° 292° (WNW) 00:12:58 437.425
POLYITAN 1 27 May 00:05:57 00:10:04 51° 100° (E) 00:14:09 437.675
TISAT 1 27 May 00:06:35 00:10:10 27° 66° (ENE) 00:13:44 437.305
TIGRISAT 27 May 00:13:10 00:16:55 30° 293° (WNW) 00:20:41 435.000
NANOSAT C BR1 27 May 00:20:31 00:24:42 70° 102° (ESE) 00:28:52 145.865
ESTCUBE 1 27 May 00:22:17 00:25:46 22° 267° (W) 00:29:17 437.505/2401.250
SWISSCUBE 27 May 00:23:18 00:25:12 12° 55° (NE) 00:27:06 437.505
ITUPSAT 1 27 May 00:28:53 00:30:50 12° 55° (NE) 00:32:46 437.325
PHONESAT 2.4 27 May 00:38:14 00:40:50 24° 177° (S) 00:43:26 2401.200-2431.200
JAS-2 27 May 00:39:22 00:45:44 29° 89° (E) 00:51:35 435.910
CUBEBUG 1 27 May 00:44:20 00:47:23 18° 269° (W) 00:50:29 437.445
ISS 27 May 00:44:44 00:47:48 36° 354° (N) 00:50:52 145.825
DX 1 27 May 00:46:26 00:49:37 20° 267° (W) 00:52:51 434.975-435.025
ANTELSAT 27 May 00:47:34 00:50:01 15° 300° (WNW) 00:52:28 437.575/2403.000
VELOX 1 27 May 00:49:01 00:51:55 17° 269° (W) 00:54:50 145.980
BEESAT 27 May 00:51:22 00:54:44 20° 60° (ENE) 00:58:07 436.000
DANDE 27 May 00:51:39 00:58:56 34° 275° (W) 01:05:50 436.750
GONETS M04 27 May 00:58:46 01:03:58 17° 308° (NW) 01:09:10
DUCHIFAT 1 27 May 00:59:44 01:03:45 48° 289° (WNW) 01:07:46 145.980
Oscar 19 27 May 01:01:41 01:04:44 16° 89° (E) 01:07:47 437.125/150
RS-15 27 May 01:06:22 01:18:22 56° 38° (NE) 01:30:27 29.354- 29.394
CUSAT 1 27 May 01:09:37 01:12:46 13° 288° (WNW) 01:15:48 437.405
SPROUT 27 May 01:15:19 01:18:31 20° 268° (W) 01:21:42 437.525
YUBILEINY 27 May 01:17:24 01:22:32 16° 52° (NE) 01:27:40 435.215
BUGSAT 1 27 May 01:21:45 01:25:44 56° 288° (WNW) 01:29:40 437.445
SO-50 27 May 01:22:41 01:27:36 88° 299° (WNW) 01:32:32 436.795
Cosmos 2499 27 May 01:32:00 01:35:29 14° 310° (NW) 01:39:06 435.465 / 435.565
POPSAT HIP 1 27 May 01:37:33 01:40:38 20° 297° (WNW) 01:43:43 437.405
QB50P1 27 May 01:38:05 01:41:08 20° 297° (WNW) 01:44:10 145.935-145.965
QB50P2 27 May 01:40:11 01:43:05 18° 298° (WNW) 01:45:57 145.880/145.840
TISAT 1 27 May 01:41:56 01:45:44 32° 263° (W) 01:49:33 437.305
POLYITAN 1 27 May 01:42:40 01:45:31 18° 298° (WNW) 01:48:21 437.675
SWISSCUBE 27 May 01:57:28 02:02:12 80° 74° (ENE) 02:07:00 437.505
NANOSAT C BR1 27 May 01:57:45 01:59:55 14° 300° (WNW) 02:02:05 145.865
KKS-1 27 May 02:02:40 02:04:44 13° 57° (ENE) 02:06:48 437.445
ITUPSAT 1 27 May 02:03:08 02:07:53 81° 75° (ENE) 02:12:41 437.325
MOZHAYETS 4 27 May 02:12:05 02:13:49 12° 57° (ENE) 02:15:33
